GLO1863 SBFI-SBGL

Flight info

Callsign GLO1863
Flight time 1h 26m
Altitude 35000
Route DCT
Aircraft B738/M-SDFGIKLORWXY/LB1

Departure

Time 2026-05-04 00:28
Airport Cataratas International Airport (SBFI)

Arrival

Time 2026-05-04 01:55
Airport Rio Galeão – Tom Jobim International Airport (SBGL)
Time Latitude Longitude Altitude Speed Heading
2026-05-04 00:15 -25.59729 -54.48808 766 ft 0 kts 221°
2026-05-04 00:22 -25.59713 -54.48790 766 ft 4 kts 232°
2026-05-04 00:22 -25.59700 -54.48765 766 ft 4 kts 259°
2026-05-04 00:22 -25.59702 -54.48741 766 ft 2 kts 309°
2026-05-04 00:22 -25.59703 -54.48739 766 ft 1 kts 310°
2026-05-04 00:24 -25.59691 -54.48754 766 ft 6 kts 310°
2026-05-04 00:25 -25.59650 -54.48808 766 ft 12 kts 310°
2026-05-04 00:25 -25.59586 -54.48890 766 ft 15 kts 310°
2026-05-04 00:25 -25.59500 -54.48899 768 ft 14 kts 30°
2026-05-04 00:25 -25.59422 -54.48941 768 ft 14 kts 313°
2026-05-04 00:26 -25.59353 -54.49027 767 ft 17 kts 310°
2026-05-04 00:26 -25.59269 -54.49135 767 ft 20 kts 310°
2026-05-04 00:26 -25.59172 -54.49260 766 ft 23 kts 311°
2026-05-04 00:26 -25.59069 -54.49391 766 ft 22 kts 310°
2026-05-04 00:27 -25.58969 -54.49486 765 ft 14 kts 343°
2026-05-04 00:27 -25.58940 -54.49538 765 ft 6 kts 217°
2026-05-04 00:27 -25.58975 -54.49515 766 ft 6 kts 133°
2026-05-04 00:27 -25.59137 -54.49305 765 ft 76 kts 130°
2026-05-04 00:28 -25.59643 -54.48654 767 ft 147 kts 130°
2026-05-04 00:28 -25.60409 -54.47640 1117 ft 181 kts 129°
2026-05-04 00:28 -25.61247 -54.46555 2045 ft 190 kts 129°
2026-05-04 00:28 -25.62166 -54.45388 2603 ft 210 kts 130°
2026-05-04 00:29 -25.63152 -54.44130 3095 ft 220 kts 130°
2026-05-04 00:29 -25.64166 -54.42829 3705 ft 225 kts 129°
2026-05-04 00:29 -25.65196 -54.41504 4359 ft 229 kts 129°
2026-05-04 00:29 -25.66165 -54.40068 4828 ft 241 kts 111°
2026-05-04 00:30 -25.66377 -54.38201 5164 ft 254 kts 83°
2026-05-04 00:30 -25.66157 -54.36169 5600 ft 272 kts 79°
2026-05-04 00:30 -25.65884 -54.34072 6376 ft 277 kts 79°
2026-05-04 00:30 -25.65603 -54.31941 7189 ft 281 kts 78°
2026-05-04 00:31 -25.65320 -54.29777 7971 ft 285 kts 78°
2026-05-04 00:31 -25.65038 -54.27579 8705 ft 290 kts 78°
2026-05-04 00:31 -25.64760 -54.25381 9441 ft 294 kts 78°
2026-05-04 00:31 -25.64472 -54.23081 9932 ft 301 kts 79°
2026-05-04 00:32 -25.64189 -54.20806 10106 ft 305 kts 79°
2026-05-04 00:32 -25.63899 -54.18462 10093 ft 306 kts 79°
2026-05-04 00:32 -25.63612 -54.16125 10132 ft 307 kts 79°
2026-05-04 00:32 -25.63312 -54.13711 10277 ft 327 kts 79°
2026-05-04 00:33 -25.62995 -54.11154 10659 ft 342 kts 80°
2026-05-04 00:33 -25.62337 -54.05825 11921 ft 355 kts 81°
2026-05-04 00:33 -25.61999 -54.03085 12542 ft 361 kts 81°
2026-05-04 00:34 -25.61656 -54.00309 13184 ft 366 kts 81°
2026-05-04 00:34 -25.61313 -53.97535 13821 ft 371 kts 81°
2026-05-04 00:34 -25.60960 -53.94686 14456 ft 375 kts 81°
2026-05-04 00:34 -25.60601 -53.91802 15070 ft 380 kts 81°
2026-05-04 00:35 -25.60237 -53.88882 15671 ft 385 kts 81°
2026-05-04 00:35 -25.59866 -53.85918 16296 ft 390 kts 81°
2026-05-04 00:35 -25.59492 -53.82929 16925 ft 395 kts 81°
2026-05-04 00:35 -25.59112 -53.79890 17523 ft 399 kts 81°
2026-05-04 00:36 -25.58727 -53.76826 18079 ft 404 kts 81°
2026-05-04 00:36 -25.58258 -53.73736 18621 ft 408 kts 78°
2026-05-04 00:36 -25.57689 -53.70626 19137 ft 413 kts 77°
2026-05-04 00:36 -25.57083 -53.67497 19634 ft 417 kts 77°
2026-05-04 00:37 -25.56475 -53.64381 20124 ft 421 kts 77°
2026-05-04 00:37 -25.55856 -53.61187 20580 ft 426 kts 78°
2026-05-04 00:37 -25.55240 -53.57961 21014 ft 430 kts 78°
2026-05-04 00:37 -25.54624 -53.54699 21433 ft 435 kts 78°
2026-05-04 00:38 -25.54006 -53.51409 21853 ft 438 kts 78°
2026-05-04 00:38 -25.53383 -53.48085 22265 ft 442 kts 78°
2026-05-04 00:38 -25.52757 -53.44738 22682 ft 445 kts 78°
2026-05-04 00:38 -25.52125 -53.41367 23063 ft 449 kts 78°
2026-05-04 00:39 -25.51487 -53.37970 23407 ft 452 kts 78°
2026-05-04 00:39 -25.50843 -53.34544 23771 ft 455 kts 79°
2026-05-04 00:39 -25.50194 -53.31099 24120 ft 458 kts 79°
2026-05-04 00:39 -25.49540 -53.27631 24444 ft 462 kts 79°
2026-05-04 00:40 -25.48888 -53.24182 24767 ft 465 kts 79°
2026-05-04 00:40 -25.48224 -53.20671 25094 ft 467 kts 78°
2026-05-04 00:40 -25.47557 -53.17147 25410 ft 469 kts 78°
2026-05-04 00:40 -25.46883 -53.13595 25710 ft 472 kts 78°
2026-05-04 00:41 -25.46206 -53.10030 25993 ft 475 kts 78°
2026-05-04 00:41 -25.45525 -53.06450 26280 ft 477 kts 78°
2026-05-04 00:41 -25.44839 -53.02848 26539 ft 480 kts 78°
2026-05-04 00:41 -25.44149 -52.99230 26795 ft 482 kts 78°
2026-05-04 00:42 -25.43453 -52.95587 27061 ft 484 kts 78°
2026-05-04 00:42 -25.42755 -52.91940 27306 ft 486 kts 78°
2026-05-04 00:42 -25.42054 -52.88278 27505 ft 489 kts 78°
2026-05-04 00:42 -25.41345 -52.84584 27719 ft 491 kts 78°
2026-05-04 00:43 -25.40634 -52.80881 27970 ft 493 kts 78°
2026-05-04 00:43 -25.39919 -52.77162 28196 ft 494 kts 77°
2026-05-04 00:43 -25.39212 -52.73486 28390 ft 496 kts 77°
2026-05-04 00:43 -25.38492 -52.69750 28570 ft 499 kts 77°
2026-05-04 00:44 -25.37766 -52.65991 28774 ft 500 kts 77°
2026-05-04 00:44 -25.37038 -52.62223 28989 ft 502 kts 77°
2026-05-04 00:44 -25.36306 -52.58443 29175 ft 503 kts 77°
2026-05-04 00:44 -25.35569 -52.54642 29329 ft 506 kts 77°
2026-05-04 00:45 -25.34830 -52.50835 29503 ft 507 kts 77°
2026-05-04 00:45 -25.34088 -52.47017 29670 ft 509 kts 77°
2026-05-04 00:45 -25.33341 -52.43182 29785 ft 512 kts 77°
2026-05-04 00:45 -25.32591 -52.39333 29925 ft 513 kts 77°
2026-05-04 00:46 -25.31835 -52.35458 30077 ft 515 kts 77°
2026-05-04 00:46 -25.31079 -52.31593 30237 ft 516 kts 77°
2026-05-04 00:46 -25.30319 -52.27711 30410 ft 517 kts 77°
2026-05-04 00:46 -25.29555 -52.23830 30568 ft 518 kts 77°
2026-05-04 00:47 -25.28783 -52.19940 30722 ft 518 kts 77°
2026-05-04 00:47 -25.28006 -52.16042 30861 ft 519 kts 77°
2026-05-04 00:47 -25.27229 -52.12144 30997 ft 520 kts 77°
2026-05-04 00:47 -25.26447 -52.08232 31119 ft 522 kts 77°
2026-05-04 00:48 -25.25666 -52.04322 31249 ft 523 kts 77°
2026-05-04 00:48 -25.24892 -52.00451 31371 ft 523 kts 77°
2026-05-04 00:48 -25.24104 -51.96517 31499 ft 524 kts 77°
2026-05-04 00:49 -25.22521 -51.88626 31663 ft 528 kts 76°
2026-05-04 00:49 -25.21726 -51.84671 31783 ft 528 kts 76°
2026-05-04 00:49 -25.20928 -51.80704 31900 ft 529 kts 76°
2026-05-04 00:49 -25.20129 -51.76740 32013 ft 530 kts 76°
2026-05-04 00:50 -25.19326 -51.72766 32121 ft 530 kts 76°
2026-05-04 00:50 -25.17714 -51.64797 32295 ft 532 kts 76°
2026-05-04 00:50 -25.16905 -51.60806 32444 ft 532 kts 77°
2026-05-04 00:51 -25.16097 -51.56826 32522 ft 533 kts 76°
2026-05-04 00:51 -25.14460 -51.48816 32622 ft 536 kts 76°
2026-05-04 00:51 -25.13640 -51.44810 32745 ft 535 kts 76°
2026-05-04 00:52 -25.12820 -51.40812 32875 ft 535 kts 76°
2026-05-04 00:52 -25.11174 -51.32793 33079 ft 535 kts 76°
2026-05-04 00:52 -25.10352 -51.28797 33210 ft 534 kts 76°
2026-05-04 00:53 -25.09538 -51.24841 33290 ft 535 kts 76°
2026-05-04 00:53 -25.08712 -51.20836 33460 ft 533 kts 76°
2026-05-04 00:53 -25.07887 -51.16842 33572 ft 533 kts 76°
2026-05-04 00:54 -25.06228 -51.08828 33614 ft 537 kts 76°
2026-05-04 00:54 -25.04564 -51.00809 33857 ft 535 kts 76°
2026-05-04 00:54 -25.03731 -50.96809 34005 ft 534 kts 76°
2026-05-04 00:55 -25.02897 -50.92818 34089 ft 535 kts 76°
2026-05-04 00:55 -25.01220 -50.84810 34194 ft 536 kts 76°
2026-05-04 00:55 -25.00380 -50.80806 34316 ft 536 kts 76°
2026-05-04 00:56 -24.99538 -50.76792 34383 ft 536 kts 76°
2026-05-04 00:56 -24.97853 -50.68776 34513 ft 537 kts 76°
2026-05-04 00:56 -24.97013 -50.64786 34810 ft 531 kts 76°
2026-05-04 00:57 -24.96187 -50.60858 35190 ft 521 kts 76°
2026-05-04 00:57 -24.94550 -50.53067 35223 ft 522 kts 76°
2026-05-04 00:58 -24.92905 -50.45265 35231 ft 523 kts 76°
2026-05-04 00:58 -24.91257 -50.37464 35235 ft 523 kts 76°
2026-05-04 00:59 -24.89611 -50.29700 35237 ft 523 kts 76°
2026-05-04 00:59 -24.88214 -50.23169 35241 ft 523 kts 76°
2026-05-04 01:00 -24.86537 -50.15359 35241 ft 524 kts 76°
2026-05-04 01:00 -24.84586 -50.06285 35250 ft 523 kts 76°
2026-05-04 01:01 -24.82907 -49.98492 35248 ft 523 kts 76°
2026-05-04 01:01 -24.81507 -49.92009 35246 ft 523 kts 76°
2026-05-04 01:02 -24.79822 -49.84226 35263 ft 523 kts 75°
2026-05-04 01:02 -24.77960 -49.76482 35257 ft 522 kts 72°
2026-05-04 01:03 -24.75881 -49.68831 35273 ft 522 kts 71°
2026-05-04 01:03 -24.73821 -49.61173 35275 ft 522 kts 72°
2026-05-04 01:04 -24.71797 -49.53489 35263 ft 522 kts 72°
2026-05-04 01:04 -24.69791 -49.45858 35273 ft 522 kts 72°
2026-05-04 01:05 -24.67781 -49.38252 35269 ft 523 kts 72°
2026-05-04 01:05 -24.65759 -49.30551 35275 ft 523 kts 72°
2026-05-04 01:06 -24.63745 -49.22861 35269 ft 524 kts 72°
2026-05-04 01:06 -24.61723 -49.15173 35269 ft 523 kts 72°
2026-05-04 01:07 -24.59666 -49.07502 35274 ft 523 kts 71°
2026-05-04 01:07 -24.57596 -48.99837 35279 ft 523 kts 71°
2026-05-04 01:08 -24.55527 -48.92172 35265 ft 523 kts 71°
2026-05-04 01:08 -24.53468 -48.84546 35265 ft 523 kts 71°
2026-05-04 01:09 -24.51397 -48.76891 35249 ft 522 kts 71°
2026-05-04 01:09 -24.49329 -48.69248 35263 ft 521 kts 71°
2026-05-04 01:10 -24.47261 -48.61609 35273 ft 522 kts 71°
2026-05-04 01:10 -24.45200 -48.54009 35256 ft 523 kts 71°
2026-05-04 01:11 -24.43122 -48.46356 35264 ft 522 kts 71°
2026-05-04 01:11 -24.41044 -48.38729 35268 ft 521 kts 71°
2026-05-04 01:12 -24.38964 -48.31113 35247 ft 521 kts 71°
2026-05-04 01:12 -24.36885 -48.23509 35247 ft 520 kts 71°
2026-05-04 01:13 -24.34801 -48.15930 35223 ft 518 kts 69°
2026-05-04 01:13 -24.32367 -48.08586 35284 ft 514 kts 65°
2026-05-04 01:14 -24.29730 -48.01301 35276 ft 514 kts 65°
2026-05-04 01:14 -24.27088 -47.93989 35277 ft 515 kts 65°
2026-05-04 01:15 -24.24480 -47.86658 35276 ft 516 kts 65°
2026-05-04 01:15 -24.21878 -47.79302 35275 ft 517 kts 65°
2026-05-04 01:16 -24.19294 -47.71999 35275 ft 517 kts 65°
2026-05-04 01:16 -24.16686 -47.64654 35268 ft 518 kts 65°
2026-05-04 01:17 -24.14066 -47.57291 35275 ft 519 kts 65°
2026-05-04 01:17 -24.11438 -47.49923 35274 ft 520 kts 65°
2026-05-04 01:18 -24.08803 -47.42544 35274 ft 521 kts 65°
2026-05-04 01:18 -24.06164 -47.35166 35286 ft 521 kts 65°
2026-05-04 01:19 -24.03522 -47.27792 35292 ft 521 kts 65°
2026-05-04 01:19 -24.00873 -47.20413 35288 ft 520 kts 65°
2026-05-04 01:20 -23.98227 -47.13057 35292 ft 520 kts 65°
2026-05-04 01:20 -23.95584 -47.05720 35286 ft 519 kts 65°
2026-05-04 01:21 -23.93115 -46.98876 35276 ft 518 kts 65°
2026-05-04 01:21 -23.90472 -46.91563 35280 ft 516 kts 65°
2026-05-04 01:22 -23.87853 -46.84329 35281 ft 514 kts 65°
2026-05-04 01:22 -23.85219 -46.77067 35278 ft 513 kts 65°
2026-05-04 01:23 -23.82588 -46.69825 35289 ft 512 kts 64°
2026-05-04 01:23 -23.80226 -46.63333 35286 ft 512 kts 64°
2026-05-04 01:24 -23.77593 -46.56110 35285 ft 511 kts 64°
2026-05-04 01:24 -23.74960 -46.48901 35294 ft 511 kts 64°
2026-05-04 01:25 -23.72327 -46.41698 35299 ft 512 kts 64°
2026-05-04 01:25 -23.69696 -46.34516 35301 ft 513 kts 64°
2026-05-04 01:26 -23.67039 -46.27277 35292 ft 514 kts 64°
2026-05-04 01:26 -23.64380 -46.20040 35299 ft 514 kts 64°
2026-05-04 01:27 -23.61710 -46.12787 35295 ft 515 kts 64°
2026-05-04 01:27 -23.59032 -46.05525 35297 ft 516 kts 64°
2026-05-04 01:28 -23.56350 -45.98262 35294 ft 516 kts 64°
2026-05-04 01:28 -23.53665 -45.91005 35297 ft 516 kts 64°
2026-05-04 01:29 -23.50973 -45.83742 35295 ft 517 kts 64°
2026-05-04 01:29 -23.48299 -45.76537 35281 ft 516 kts 64°
2026-05-04 01:30 -23.45607 -45.69294 35279 ft 515 kts 64°
2026-05-04 01:30 -23.42916 -45.62065 35279 ft 514 kts 64°
2026-05-04 01:31 -23.40219 -45.54834 35279 ft 518 kts 64°
2026-05-04 01:31 -23.37908 -45.47322 35280 ft 531 kts 75°
2026-05-04 01:32 -23.36324 -45.39382 34670 ft 545 kts 76°
2026-05-04 01:32 -23.35508 -45.35345 34003 ft 544 kts 75°
2026-05-04 01:32 -23.34659 -45.31338 33339 ft 543 kts 74°
2026-05-04 01:32 -23.33794 -45.27338 32641 ft 543 kts 74°
2026-05-04 01:33 -23.32926 -45.23331 31990 ft 542 kts 74°
2026-05-04 01:33 -23.32065 -45.19350 31498 ft 538 kts 74°
2026-05-04 01:33 -23.31212 -45.15405 30987 ft 533 kts 74°
2026-05-04 01:33 -23.30369 -45.11500 30483 ft 529 kts 74°
2026-05-04 01:34 -23.29540 -45.07659 29997 ft 524 kts 74°
2026-05-04 01:34 -23.28708 -45.03813 29503 ft 520 kts 74°
2026-05-04 01:34 -23.27883 -45.00006 28996 ft 516 kts 75°
2026-05-04 01:34 -23.27063 -44.96227 28475 ft 511 kts 75°
2026-05-04 01:35 -23.26248 -44.92478 27962 ft 506 kts 75°
2026-05-04 01:35 -23.25441 -44.88767 27482 ft 501 kts 75°
2026-05-04 01:35 -23.24641 -44.85097 26974 ft 497 kts 76°
2026-05-04 01:35 -23.23844 -44.81439 26481 ft 494 kts 76°
2026-05-04 01:36 -23.23053 -44.77819 25995 ft 490 kts 76°
2026-05-04 01:36 -23.22266 -44.74219 25476 ft 487 kts 76°
2026-05-04 01:36 -23.21486 -44.70667 25128 ft 479 kts 76°
2026-05-04 01:36 -23.20487 -44.67281 25005 ft 461 kts 68°
2026-05-04 01:37 -23.19290 -44.64090 24435 ft 453 kts 66°
2026-05-04 01:37 -23.18054 -44.60950 23620 ft 451 kts 66°
2026-05-04 01:37 -23.16812 -44.57830 22856 ft 448 kts 66°
2026-05-04 01:37 -23.15590 -44.54739 22243 ft 440 kts 66°
2026-05-04 01:38 -23.14418 -44.51742 21667 ft 433 kts 66°
2026-05-04 01:38 -23.13245 -44.48710 21025 ft 426 kts 66°
2026-05-04 01:38 -23.12126 -44.45799 20377 ft 421 kts 66°
2026-05-04 01:38 -23.11008 -44.42881 19742 ft 415 kts 66°
2026-05-04 01:39 -23.09907 -44.40004 19136 ft 409 kts 66°
2026-05-04 01:39 -23.08825 -44.37176 18542 ft 402 kts 66°
2026-05-04 01:39 -23.07759 -44.34393 17940 ft 396 kts 66°
2026-05-04 01:39 -23.06707 -44.31650 17392 ft 389 kts 66°
2026-05-04 01:40 -23.05679 -44.28970 16940 ft 381 kts 66°
2026-05-04 01:40 -23.04660 -44.26316 16523 ft 379 kts 66°
2026-05-04 01:40 -23.03646 -44.23679 16101 ft 378 kts 66°
2026-05-04 01:40 -23.02636 -44.21055 15688 ft 376 kts 66°
2026-05-04 01:41 -23.01632 -44.18445 15250 ft 374 kts 66°
2026-05-04 01:41 -23.00630 -44.15846 14829 ft 372 kts 66°
2026-05-04 01:41 -22.99636 -44.13265 14427 ft 369 kts 66°
2026-05-04 01:41 -22.98649 -44.10704 14008 ft 367 kts 66°
2026-05-04 01:42 -22.97665 -44.08151 13597 ft 364 kts 66°
2026-05-04 01:42 -22.96690 -44.05624 13189 ft 362 kts 66°
2026-05-04 01:42 -22.95721 -44.03115 12761 ft 359 kts 66°
2026-05-04 01:42 -22.94760 -44.00628 12371 ft 356 kts 66°
2026-05-04 01:43 -22.93805 -43.98157 11967 ft 354 kts 66°
2026-05-04 01:43 -22.92857 -43.95704 11563 ft 351 kts 66°
2026-05-04 01:43 -22.91916 -43.93272 11160 ft 348 kts 67°
2026-05-04 01:43 -22.90984 -43.90864 10850 ft 343 kts 67°
2026-05-04 01:44 -22.90073 -43.88513 10709 ft 333 kts 67°
2026-05-04 01:44 -22.89199 -43.86257 10560 ft 324 kts 67°
2026-05-04 01:44 -22.88340 -43.84040 10416 ft 312 kts 67°
2026-05-04 01:44 -22.87520 -43.81927 10276 ft 296 kts 67°
2026-05-04 01:45 -22.86738 -43.79913 10089 ft 284 kts 67°
2026-05-04 01:45 -22.85984 -43.77971 9833 ft 275 kts 67°
2026-05-04 01:45 -22.84507 -43.74167 9301 ft 272 kts 68°
2026-05-04 01:46 -22.83772 -43.72276 9030 ft 271 kts 68°
2026-05-04 01:46 -22.83286 -43.71027 8848 ft 271 kts 68°
2026-05-04 01:46 -22.82558 -43.69154 8575 ft 270 kts 68°
2026-05-04 01:46 -22.81830 -43.67283 8269 ft 270 kts 68°
2026-05-04 01:47 -22.81078 -43.65348 7472 ft 284 kts 68°
2026-05-04 01:47 -22.80816 -43.64675 7230 ft 286 kts 68°
2026-05-04 01:47 -22.80435 -43.63696 6864 ft 291 kts 68°
2026-05-04 01:48 -22.79705 -43.61821 6289 ft 293 kts 69°
2026-05-04 01:48 -22.78920 -43.59810 5938 ft 286 kts 69°
2026-05-04 01:48 -22.78157 -43.57855 5608 ft 278 kts 69°
2026-05-04 01:48 -22.77413 -43.55949 5291 ft 271 kts 69°
2026-05-04 01:49 -22.76689 -43.54111 5008 ft 259 kts 69°
2026-05-04 01:49 -22.75999 -43.52365 4710 ft 251 kts 69°
2026-05-04 01:49 -22.75319 -43.50646 4441 ft 245 kts 69°
2026-05-04 01:49 -22.74656 -43.48969 4194 ft 238 kts 69°
2026-05-04 01:50 -22.74012 -43.47341 3959 ft 232 kts 69°
2026-05-04 01:50 -22.73384 -43.45756 3757 ft 225 kts 69°
2026-05-04 01:50 -22.72779 -43.44230 3555 ft 216 kts 69°
2026-05-04 01:50 -22.72197 -43.42764 3368 ft 207 kts 69°
2026-05-04 01:51 -22.71910 -43.41310 3180 ft 192 kts 104°
2026-05-04 01:51 -22.72428 -43.40051 3034 ft 185 kts 122°
2026-05-04 01:51 -22.73063 -43.38816 2771 ft 187 kts 122°
2026-05-04 01:51 -22.73733 -43.37615 2506 ft 185 kts 126°
2026-05-04 01:52 -22.74449 -43.36497 2271 ft 176 kts 127°
2026-05-04 01:52 -22.75140 -43.35459 2096 ft 164 kts 128°
2026-05-04 01:52 -22.75816 -43.34449 1833 ft 165 kts 127°
2026-05-04 01:52 -22.76485 -43.33451 1612 ft 162 kts 127°
2026-05-04 01:53 -22.77144 -43.32465 1410 ft 162 kts 127°
2026-05-04 01:53 -22.77801 -43.31483 1188 ft 163 kts 126°
2026-05-04 01:53 -22.78466 -43.30488 984 ft 163 kts 126°
2026-05-04 01:53 -22.79149 -43.29512 759 ft 162 kts 127°
2026-05-04 01:54 -22.79822 -43.28532 525 ft 161 kts 126°
2026-05-04 01:54 -22.80470 -43.27556 325 ft 158 kts 124°
2026-05-04 01:54 -22.81106 -43.26580 148 ft 158 kts 124°
2026-05-04 01:54 -22.81739 -43.25614 26 ft 148 kts 126°
2026-05-04 01:55 -22.82219 -43.24895 25 ft 86 kts 126°
2026-05-04 01:55 -22.82334 -43.24689 25 ft 15 kts 103°
2026-05-04 01:55 -22.82356 -43.24581 25 ft 14 kts 101°
2026-05-04 01:55 -22.82367 -43.24496 25 ft 9 kts 98°
2026-05-04 01:56 -22.82340 -43.24443 25 ft 9 kts 358°
2026-05-04 01:56 -22.82301 -43.24496 25 ft 9 kts 301°
2026-05-04 01:56 -22.82264 -43.24553 29 ft 10 kts 305°
2026-05-04 01:56 -22.82213 -43.24630 26 ft 15 kts 306°
2026-05-04 01:57 -22.82150 -43.24724 28 ft 15 kts 306°
2026-05-04 01:57 -22.82090 -43.24815 27 ft 15 kts 306°
2026-05-04 01:57 -22.82033 -43.24902 27 ft 14 kts 306°
2026-05-04 01:57 -22.81978 -43.24986 27 ft 14 kts 305°
2026-05-04 01:58 -22.81916 -43.25080 25 ft 17 kts 306°
2026-05-04 01:58 -22.81845 -43.25186 29 ft 17 kts 306°
2026-05-04 01:58 -22.81764 -43.25246 27 ft 15 kts 11°
2026-05-04 01:58 -22.81680 -43.25190 26 ft 14 kts 35°
2026-05-04 01:59 -22.81602 -43.25131 29 ft 13 kts 35°
2026-05-04 01:59 -22.81528 -43.25075 29 ft 13 kts 35°
2026-05-04 01:59 -22.81470 -43.25007 25 ft 13 kts 80°
2026-05-04 01:59 -22.81478 -43.24914 25 ft 12 kts 89°
2026-05-04 02:00 -22.81458 -43.24832 27 ft 8 kts 72°
2026-05-04 02:00 -22.81453 -43.24816 25 ft 0 kts 72°